Location: Friaudour
(46.0460°N, 1.2873°E)
Time: 09:32:57
(UTC+00:00)

Lacrosse 5 - Pass Details

Date: 14 July 2020
Orbit: 717 x 720 km, 57.0° (Epoch: 02 August)

Event Time Altitude Azimuth Distance (km) Brightness Sun altitude
Exits shadow 01:49:49 - 271° (W) 2,480 4.4 -18.0°
Reaches altitude 10° 01:50:38 10° 274° (W) 2,202 4.2 -17.9°
Maximum altitude 01:55:12 33° 339° (NNW) 1,201 3.4 -17.5°
Drops below altitude 10° 01:59:48 10° 43° (NE) 2,208 5.6 -17.2°
Sets 02:02:24 0° 53° (NE) 3,131 6.4 -16.9°
